Valparaiso, IN

3:13 AM CDT on April 26, 2017 (GMT -0500)
Porter County Municipal

Weather History for KVPZ - April, 2013

Change the Weather History Date:

Thursday, April 18, 2013

  Actual Average Record
Temperature  
Mean Temperature 57 °F 50 °F  
Max Temperature 70 °F 61 °F 88 °F (2002)
Min Temperature 44 °F 39 °F 27 °F (2001)
Degree Days  
Heating Degree Days 8 15  
Month to date heating degree days 331 327  
Since 1 July heating degree days 5700 5904  
Cooling Degree Days 0 0  
Month to date cooling degree days 0 0  
Year to date cooling degree days 0 0  
Growing Degree Days 8 (Base 50)    
Moisture  
Dew Point 56 °F    
Average Humidity 92    
Maximum Humidity 100    
Minimum Humidity 78    
Precipitation  
Precipitation 1.40 in 0.12 in 1.40 in (2013)
Month to date precipitation 5.69 2.01  
Year to date precipitation 9.78 7.66  
Sea Level Pressure  
Sea Level Pressure 29.62 in    
Wind  
Wind Speed 15 mph (South)    
Max Wind Speed 32 mph    
Max Gust Speed 43 mph    
Visibility 7 miles    
Events Rain    
T = Trace of Precipitation, MM = Missing Value Source: NWS Daily Summary

Daily Weather History Graph

Daily Weather History Graph

Search for Another Location

Airport or City:

Trip Planner

Search our weather history database for the weather conditions in past years. The results will help you decide how hot, cold, wet, or windy it might be!

Date:

Astronomy

Apr. 18, 2013 Rise Set
Actual Time 6:03 AM CDT 7:31 PM CDT
Civil Twilight 5:34 AM CDT 8:01 PM CDT
Nautical Twilight 4:59 AM CDT 8:36 PM CDT
Astronomical Twilight 4:22 AM CDT 9:13 PM CDT
Moon 12:13 PM CDT (4/18) 1:47 AM CDT (4/18)
Length of Visible Light 14h 26m
Length of Day
13h 28m
First Quarter, 52% of the Moon is Illuminated
Apr 18
First Quarter
Apr 25
Full
May 2
Last Quarter
May 9
New
May 17
First Quarter

Hourly Weather History & Observations

Time (CDT) Temp. Windchill Dew Point Humidity Pressure Visibility Wind Dir Wind Speed Gust Speed Precip Events Conditions
12:12 AM 51.8 °F - 50.0 °F 94% 29.82 in 7.0 mi ESE 12.7 mph - N/A   Overcast
12:23 AM 51.8 °F - 48.2 °F 88% 29.82 in 7.0 mi ESE 11.5 mph 20.7 mph N/A   Overcast
12:53 AM 50.0 °F - 48.0 °F 93% 29.80 in 6.0 mi East 10.4 mph - N/A   Overcast
1:08 AM 50.0 °F - 48.2 °F 94% 29.77 in 7.0 mi East 11.5 mph - N/A   Overcast
1:53 AM 51.1 °F - 48.9 °F 92% 29.75 in 5.0 mi ESE 9.2 mph - N/A   Overcast
2:53 AM 51.1 °F - 50.0 °F 96% 29.74 in 4.0 mi NE 4.6 mph - 0.11 in Rain Rain
3:03 AM 51.8 °F - 50.0 °F 94% 29.73 in 2.0 mi East 16.1 mph - 0.13 in Rain Light Rain
3:19 AM 51.8 °F - 51.8 °F 100% 29.72 in 5.0 mi ENE 5.8 mph - 0.14 in   Overcast
3:32 AM 51.8 °F - 51.8 °F 100% 29.72 in 5.0 mi East 8.1 mph - 0.14 in   Mostly Cloudy
3:53 AM 51.1 °F - 50.0 °F 96% 29.71 in 4.0 mi ENE 5.8 mph - 0.14 in   Mostly Cloudy
4:27 AM 51.8 °F - 51.8 °F 100% 29.68 in 2.5 mi East 8.1 mph - N/A   Mostly Cloudy
4:34 AM 51.8 °F - 51.8 °F 100% 29.67 in 3.0 mi East 8.1 mph - N/A   Mostly Cloudy
4:53 AM 53.1 °F - 52.0 °F 96% 29.65 in 4.0 mi ESE 8.1 mph - N/A   Partly Cloudy
5:53 AM 60.1 °F - 57.9 °F 93% 29.63 in 8.0 mi South 9.2 mph - N/A   Mostly Cloudy
6:53 AM 66.0 °F - 61.0 °F 84% 29.61 in 10.0 mi South 13.8 mph 19.6 mph N/A   Partly Cloudy
7:53 AM 66.9 °F - 62.1 °F 84% 29.57 in 10.0 mi South 13.8 mph - N/A   Mostly Cloudy
8:25 AM 69.8 °F - 62.6 °F 78% 29.57 in 10.0 mi South 16.1 mph 23.0 mph N/A   Overcast
8:53 AM 70.0 °F - 64.0 °F 81% 29.54 in 10.0 mi South 20.7 mph 32.2 mph N/A   Overcast
9:16 AM 69.8 °F - 64.4 °F 83% 29.56 in 1.8 mi SSW 32.2 mph 42.6 mph 0.06 in Rain Rain
9:24 AM 68.0 °F - 62.6 °F 83% 29.57 in 3.0 mi SW 28.8 mph 42.6 mph 0.06 in Rain Light Rain
9:32 AM 66.2 °F - 62.6 °F 88% 29.57 in 10.0 mi WSW 19.6 mph 40.3 mph 0.06 in   Mostly Cloudy
9:53 AM 66.0 °F - 61.0 °F 84% 29.59 in 10.0 mi SW 18.4 mph - 0.06 in   Mostly Cloudy
10:18 AM 64.4 °F - 60.8 °F 88% 29.62 in 10.0 mi SW 21.9 mph 27.6 mph 0.00 in Rain Light Rain
10:53 AM 63.0 °F - 61.0 °F 93% 29.62 in 10.0 mi SSW 16.1 mph 25.3 mph 0.05 in Rain Light Rain
11:08 AM 62.6 °F - 60.8 °F 94% 29.62 in 10.0 mi SSW 13.8 mph 21.9 mph 0.01 in Rain Light Rain
11:22 AM 62.6 °F - 60.8 °F 94% 29.64 in 9.0 mi SW 15.0 mph 20.7 mph 0.02 in Rain Light Rain
11:53 AM 63.0 °F - 61.0 °F 93% 29.63 in 9.0 mi South 13.8 mph - 0.04 in Rain Light Rain
12:53 PM 63.0 °F - 61.0 °F 93% 29.64 in 6.0 mi SSW 13.8 mph - 0.04 in Rain Light Rain
1:53 PM 63.0 °F - 61.0 °F 93% 29.66 in 10.0 mi SSW 15.0 mph 21.9 mph 0.09 in Rain Light Rain
2:50 PM 62.6 °F - 60.8 °F 94% 29.63 in 10.0 mi South 13.8 mph 20.7 mph 0.02 in Rain Light Rain
2:53 PM 63.0 °F - 61.0 °F 93% 29.63 in 10.0 mi South 13.8 mph - 0.02 in Rain Light Rain
3:33 PM 62.6 °F - 60.8 °F 94% 29.65 in 8.0 mi SSW 13.8 mph 26.5 mph 0.05 in Rain Light Rain
3:48 PM 62.6 °F - 60.8 °F 94% 29.65 in 7.0 mi SSW 12.7 mph - 0.06 in Rain Light Rain
3:53 PM 62.1 °F - 60.1 °F 93% 29.65 in 7.0 mi South 11.5 mph - 0.07 in Rain Light Rain
4:02 PM 62.6 °F - 60.8 °F 94% 29.62 in 8.0 mi South 12.7 mph 18.4 mph 0.01 in Rain Light Rain
4:11 PM 62.6 °F - 60.8 °F 94% 29.61 in 10.0 mi SSE 12.7 mph - 0.02 in Rain Light Rain
4:19 PM 62.6 °F - 60.8 °F 94% 29.60 in 10.0 mi SSE 11.5 mph 19.6 mph 0.02 in Rain Light Rain
4:29 PM 62.6 °F - 60.8 °F 94% 29.61 in 10.0 mi SSE 13.8 mph 20.7 mph 0.03 in Rain Light Rain
4:53 PM 61.0 °F - 59.0 °F 93% 29.61 in 8.0 mi South 15.0 mph - 0.05 in Rain Light Rain
5:09 PM 60.8 °F - 60.8 °F 100% 29.61 in 10.0 mi South 12.7 mph 20.7 mph 0.01 in Rain Light Rain
5:53 PM 61.0 °F - 59.0 °F 93% 29.58 in 8.0 mi South 17.3 mph 27.6 mph 0.04 in Rain Light Rain
6:53 PM 61.0 °F - 57.9 °F 90% 29.50 in 7.0 mi SSE 11.5 mph 27.6 mph 0.04 in Rain Light Rain
7:53 PM 61.0 °F - 59.0 °F 93% 29.52 in 4.0 mi SSE 19.6 mph 33.4 mph 0.13 in Rain Rain
8:03 PM 60.8 °F - 59.0 °F 94% 29.53 in 5.0 mi South 13.8 mph 25.3 mph 0.02 in Rain Light Rain
8:17 PM 60.8 °F - 59.0 °F 94% 29.53 in 8.0 mi SSE 16.1 mph 26.5 mph 0.04 in Rain Light Rain
8:53 PM 60.1 °F - 59.0 °F 96% 29.57 in 5.0 mi SW 17.3 mph 26.5 mph 0.13 in Rain Light Rain
8:56 PM 59.0 °F - 57.2 °F 94% 29.56 in 2.0 mi WSW 23.0 mph 35.7 mph 0.12 in Rain Rain
9:03 PM 55.4 °F - 53.6 °F 94% 29.56 in 1.8 mi SW 19.6 mph 35.7 mph 0.14 in Rain Light Rain
9:06 PM 55.4 °F - 53.6 °F 94% 29.57 in 4.0 mi WSW 20.7 mph 33.4 mph 0.14 in Rain Light Rain
9:15 PM 55.4 °F - 53.6 °F 94% 29.56 in 5.0 mi SW 16.1 mph 24.2 mph 0.17 in Rain Light Rain
9:29 PM 53.6 °F - 51.8 °F 94% 29.57 in 4.0 mi SW 20.7 mph 26.5 mph 0.23 in Rain Rain
9:50 PM 51.8 °F - 48.2 °F 88% 29.57 in 7.0 mi SW 20.7 mph 32.2 mph 0.30 in Rain Light Rain
9:53 PM 51.1 °F - 48.0 °F 89% 29.57 in 7.0 mi WSW 23.0 mph 32.2 mph 0.31 in Rain Light Rain
10:00 PM 51.8 °F - 48.2 °F 88% 29.56 in 6.0 mi SW 17.3 mph 29.9 mph 0.01 in Rain Light Rain
10:10 PM 50.0 °F - 48.2 °F 94% 29.57 in 8.0 mi SW 21.9 mph 35.7 mph 0.03 in Rain Light Rain
10:53 PM 48.0 °F - 45.0 °F 89% 29.56 in 10.0 mi WSW 23.0 mph 28.8 mph 0.06 in Rain Light Rain
11:03 PM 46.4 °F 39.5 °F 44.6 °F 93% 29.57 in 10.0 mi WSW 17.3 mph 28.8 mph 0.01 in Rain Light Rain
11:30 PM 46.4 °F 39.2 °F 42.8 °F 87% 29.55 in 10.0 mi WSW 18.4 mph 26.5 mph 0.01 in   Overcast
11:53 PM 45.0 °F 38.2 °F 39.9 °F 82% 29.55 in 10.0 mi West 15.0 mph 27.6 mph 0.01 in Rain Light Rain